| time (UTC) | temp F | wind direction | speed MPH | gust MPH | rain 1hr in | rain 24hr in | rain mn in | humidity % | barometer mb |
| 20260902201511 | 88 | 52 | 16.0 | 23.0 | 0.00 | 0.00 | 0.00 | 74 | 1010.6 |
| 20260902201011 | 89 | 61 | 8.0 | 19.0 | 0.00 | 0.00 | 0.00 | 74 | 1010.1 |
| 20260902200511 | 89 | 92 | 10.0 | 17.0 | 0.00 | 0.00 | 0.00 | 74 | 1010.3 |
| 20260902200011 | 89 | 91 | 12.0 | 17.0 | 0.00 | 0.00 | 0.00 | 74 | 1010.4 |
| 20260902195511 | 89 | 71 | 8.0 | 18.0 | 0.00 | 0.00 | 0.00 | 73 | 1010.2 |
| 20260902195011 | 89 | 93 | 13.0 | 24.0 | 0.00 | 0.00 | 0.00 | 75 | 1010.4 |
| 20260902194511 | 88 | 64 | 12.0 | 24.0 | 0.00 | 0.00 | 0.00 | 75 | 1010.7 |
| 20260902194010 | 88 | 33 | 9.0 | 24.0 | 0.00 | 0.00 | 0.00 | 74 | 1010.7 |
| 20260902193511 | 88 | 86 | 12.0 | 24.0 | 0.00 | 0.00 | 0.00 | 74 | 1010.8 |
| 20260902193011 | 89 | 92 | 13.0 | 24.0 | 0.00 | 0.00 | 0.00 | 73 | 1010.8 |
| 20260902192511 | 88 | 43 | 8.0 | 24.0 | 0.00 | 0.00 | 0.00 | 74 | 1010.6 |
| 20260902192011 | 88 | 134 | 11.0 | 24.0 | 0.00 | 0.00 | 0.00 | 73 | 1010.9 |
| 20260902191511 | 89 | 40 | 13.0 | 22.0 | 0.00 | 0.00 | 0.00 | 72 | 1010.6 |
| 20260902191010 | 89 | 45 | 10.0 | 22.0 | 0.00 | 0.00 | 0.00 | 73 | 1010.7 |
| 20260902190511 | 89 | 45 | 13.0 | 21.0 | 0.00 | 0.00 | 0.00 | 73 | 1010.9 |
| 20260902190011 | 90 | 89 | 9.0 | 21.0 | 0.00 | 0.00 | 0.00 | 72 | 1011.0 |
| 20260902185511 | 89 | 72 | 10.0 | 21.0 | 0.00 | 0.00 | 0.00 | 72 | 1011.1 |
| 20260902185011 | 90 | 91 | 4.0 | 19.0 | 0.00 | 0.00 | 0.00 | 69 | 1011.1 |
| 20260902184516 | 90 | 61 | 6.0 | 21.0 | 0.00 | 0.00 | 0.00 | 71 | 1011.1 |
| 20260902184010 | 90 | 66 | 8.0 | 18.0 | 0.00 | 0.00 | 0.00 | 71 | 1011.2 |
| 20260902183510 | 89 | 78 | 6.0 | 19.0 | 0.00 | 0.00 | 0.00 | 72 | 1011.2 |
| 20260902183010 | 90 | 82 | 8.0 | 21.0 | 0.00 | 0.00 | 0.00 | 70 | 1011.5 |
| 20260902182511 | 90 | 59 | 8.0 | 21.0 | 0.00 | 0.00 | 0.00 | 70 | 1011.6 |
| 20260902182010 | 90 | 76 | 7.0 | 19.0 | 0.00 | 0.00 | 0.00 | 71 | 1011.5 |
| 20260902181511 | 90 | 95 | 9.0 | 18.0 | 0.00 | 0.00 | 0.00 | 70 | 1011.9 |
| 20260902181010 | 91 | 53 | 13.0 | 18.0 | 0.00 | 0.00 | 0.00 | 72 | 1011.6 |
| 20260902180510 | 90 | 99 | 7.0 | 18.0 | 0.00 | 0.00 | 0.00 | 72 | 1011.7 |
| 20260902180011 | 91 | 69 | 10.0 | 17.0 | 0.00 | 0.00 | 0.00 | 69 | 1012.0 |
| 20260902175511 | 91 | 73 | 8.0 | 21.0 | 0.00 | 0.00 | 0.00 | 69 | 1012.1 |
| 20260902175012 | 90 | 69 | 6.0 | 21.0 | 0.00 | 0.00 | 0.00 | 70 | 1012.3 |
| 20260902174510 | 90 | 80 | 7.0 | 21.0 | 0.00 | 0.00 | 0.00 | 70 | 1012.3 |
| 20260902174012 | 89 | 92 | 12.0 | 23.0 | 0.00 | 0.00 | 0.00 | 72 | 1012.3 |
| 20260902173511 | 90 | 82 | 9.0 | 23.0 | 0.00 | 0.00 | 0.00 | 70 | 1012.2 |
| 20260902173012 | 90 | 93 | 11.0 | 21.0 | 0.00 | 0.00 | 0.00 | 71 | 1012.3 |
| 20260902172511 | 90 | 125 | 7.0 | 18.0 | 0.00 | 0.00 | 0.00 | 70 | 1012.4 |
| 20260902172011 | 91 | 95 | 13.0 | 19.0 | 0.00 | 0.00 | 0.00 | 71 | 1012.4 |
| 20260902171511 | 90 | 73 | 12.0 | 19.0 | 0.00 | 0.00 | 0.00 | 71 | 1012.4 |
| 20260902171010 | 91 | 77 | 8.0 | 18.0 | 0.00 | 0.00 | 0.00 | 69 | 1012.5 |
| 20260902170510 | 91 | 74 | 10.0 | 22.0 | 0.00 | 0.00 | 0.00 | 70 | 1012.6 |
| 20260902170012 | 90 | 39 | 13.0 | 22.0 | 0.00 | 0.00 | 0.00 | 70 | 1012.6 |
| 20260902165511 | 90 | 107 | 9.0 | 19.0 | 0.00 | 0.00 | 0.00 | 70 | 1012.7 |
| 20260902165010 | 90 | 91 | 10.0 | 22.0 | 0.00 | 0.00 | 0.00 | 71 | 1012.9 |
| 20260902164511 | 90 | 55 | 11.0 | 22.0 | 0.00 | 0.00 | 0.00 | 72 | 1012.7 |
| 20260902164011 | 89 | 78 | 4.0 | 19.0 | 0.00 | 0.00 | 0.00 | 72 | 1013.1 |
| 20260902163511 | 90 | 81 | 9.0 | 21.0 | 0.00 | 0.00 | 0.00 | 72 | 1012.9 |
| 20260902162959 | 90 | 127 | 9.0 | 21.0 | 0.00 | 0.00 | 0.00 | 70 | 1013.0 |
| 20260902162459 | 91 | 103 | 6.0 | 18.0 | 0.00 | 0.00 | 0.00 | 71 | 1012.9 |
| 20260902162000 | 90 | 11 | 14.0 | 18.0 | 0.00 | 0.00 | 0.00 | 71 | 1013.0 |
| 20260902161459 | 90 | 130 | 7.0 | 18.0 | 0.00 | 0.00 | 0.00 | 70 | 1013.1 |
| 20260902160959 | 91 | 67 | 13.0 | 18.0 | 0.00 | 0.00 | 0.00 | 70 | 1013.0 |
| 20260902160459 | 90 | 80 | 11.0 | 18.0 | 0.00 | 0.00 | 0.00 | 71 | 1013.2 |
| 20260902155959 | 90 | 66 | 5.0 | 18.0 | 0.00 | 0.00 | 0.00 | 71 | 1012.9 |
| 20260902155448 | 90 | 68 | 8.0 | 19.0 | 0.00 | 0.00 | 0.00 | 70 | 1013.2 |
| 20260902154947 | 89 | 75 | 12.0 | 19.0 | 0.00 | 0.00 | 0.00 | 73 | 1013.2 |
| 20260902154447 | 89 | 179 | 13.0 | 22.0 | 0.00 | 0.00 | 0.00 | 72 | 1013.4 |
| 20260902153935 | 89 | 89 | 18.0 | 22.0 | 0.00 | 0.00 | 0.00 | 74 | 1013.4 |
| 20260902153435 | 88 | 102 | 5.0 | 19.0 | 0.00 | 0.00 | 0.00 | 73 | 1013.5 |
| 20260902152935 | 89 | 77 | 11.0 | 17.0 | 0.00 | 0.00 | 0.00 | 73 | 1013.4 |
| 20260902152423 | 90 | 105 | 4.0 | 18.0 | 0.00 | 0.00 | 0.00 | 70 | 1013.7 |
| 20260902151923 | 89 | 64 | 13.0 | 21.0 | 0.00 | 0.00 | 0.00 | 73 | 1013.5 |
| 20260902151423 | 88 | 55 | 6.0 | 22.0 | 0.00 | 0.00 | 0.00 | 73 | 1013.6 |
| 20260902150923 | 89 | 92 | 5.0 | 22.0 | 0.00 | 0.00 | 0.00 | 74 | 1013.6 |
| 20260902150423 | 89 | 72 | 9.0 | 21.0 | 0.00 | 0.00 | 0.00 | 73 | 1013.6 |
| 20260902145923 | 89 | 98 | 11.0 | 21.0 | 0.00 | 0.00 | 0.00 | 73 | 1013.6 |
| 20260902145423 | 89 | 126 | 11.0 | 22.0 | 0.00 | 0.00 | 0.00 | 73 | 1013.5 |
| 20260902144922 | 89 | 66 | 10.0 | 22.0 | 0.00 | 0.00 | 0.00 | 72 | 1013.6 |
| 20260902144423 | 89 | 55 | 6.0 | 22.0 | 0.00 | 0.00 | 0.00 | 72 | 1013.7 |
| 20260902143923 | 88 | 72 | 8.0 | 24.0 | 0.00 | 0.00 | 0.00 | 72 | 1013.6 |
| 20260902143423 | 88 | 111 | 9.0 | 24.0 | 0.00 | 0.00 | 0.00 | 72 | 1013.7 |
| 20260902142923 | 88 | 180 | 9.0 | 21.0 | 0.00 | 0.00 | 0.00 | 73 | 1013.7 |
| 20260902142423 | 88 | 93 | 10.0 | 21.0 | 0.00 | 0.00 | 0.00 | 73 | 1013.8 |
| 20260902141922 | 89 | 66 | 8.0 | 17.0 | 0.00 | 0.00 | 0.00 | 72 | 1014.0 |
| 20260902141423 | 89 | 83 | 12.0 | 17.0 | 0.00 | 0.00 | 0.00 | 71 | 1013.9 |
| 20260902140911 | 89 | 66 | 11.0 | 18.0 | 0.00 | 0.00 | 0.00 | 74 | 1013.7 |
| 20260902140411 | 88 | 186 | 2.0 | 18.0 | 0.00 | 0.00 | 0.00 | 73 | 1014.0 |
| 20260902135912 | 88 | 95 | 8.0 | 17.0 | 0.00 | 0.00 | 0.00 | 74 | 1013.9 |
| 20260902135410 | 88 | 101 | 6.0 | 19.0 | 0.00 | 0.00 | 0.00 | 73 | 1014.0 |
| 20260902134911 | 88 | 144 | 3.0 | 23.0 | 0.00 | 0.00 | 0.00 | 73 | 1014.0 |
| 20260902134411 | 88 | 171 | 9.0 | 23.0 | 0.00 | 0.00 | 0.00 | 74 | 1013.7 |
| 20260902133911 | 88 | 47 | 9.0 | 18.0 | 0.00 | 0.00 | 0.00 | 74 | 1013.8 |
| 20260902133411 | 87 | 99 | 8.0 | 23.0 | 0.00 | 0.00 | 0.00 | 76 | 1013.9 |
| 20260902132911 | 87 | 130 | 9.0 | 23.0 | 0.00 | 0.00 | 0.00 | 76 | 1013.7 |
| 20260902132411 | 87 | 55 | 11.0 | 21.0 | 0.00 | 0.00 | 0.00 | 75 | 1013.8 |
| 20260902131911 | 87 | 86 | 11.0 | 18.0 | 0.00 | 0.00 | 0.00 | 75 | 1013.8 |
| 20260902131411 | 87 | 109 | 4.0 | 19.0 | 0.00 | 0.00 | 0.00 | 77 | 1013.8 |
| 20260902130911 | 87 | 107 | 9.0 | 21.0 | 0.00 | 0.00 | 0.00 | 76 | 1013.6 |
| 20260902130410 | 87 | 82 | 11.0 | 21.0 | 0.00 | 0.00 | 0.00 | 77 | 1013.6 |
| 20260902125911 | 86 | 80 | 11.0 | 19.0 | 0.00 | 0.00 | 0.00 | 78 | 1013.4 |
| 20260902125411 | 87 | 62 | 6.0 | 25.0 | 0.00 | 0.00 | 0.00 | 78 | 1013.3 |
| 20260902124911 | 86 | 106 | 9.0 | 25.0 | 0.00 | 0.00 | 0.00 | 78 | 1013.7 |
| 20260902124411 | 87 | 100 | 14.0 | 19.0 | 0.00 | 0.00 | 0.00 | 77 | 1013.4 |
| 20260902123911 | 86 | 112 | 6.0 | 18.0 | 0.00 | 0.00 | 0.00 | 78 | 1013.4 |
| 20260902123411 | 86 | 109 | 6.0 | 19.0 | 0.00 | 0.00 | 0.00 | 78 | 1013.3 |
| 20260902122911 | 86 | 90 | 8.0 | 19.0 | 0.00 | 0.00 | 0.00 | 78 | 1013.3 |
| 20260902122411 | 86 | 86 | 7.0 | 19.0 | 0.00 | 0.00 | 0.00 | 78 | 1013.3 |
| 20260902121911 | 86 | 82 | 10.0 | 21.0 | 0.00 | 0.00 | 0.00 | 78 | 1013.3 |
| 20260902121411 | 85 | 22 | 8.0 | 22.0 | 0.00 | 0.00 | 0.00 | 78 | 1013.2 |
| 20260902120911 | 85 | 95 | 12.0 | 22.0 | 0.00 | 0.00 | 0.00 | 78 | 1013.4 |
| 20260902120411 | 85 | 99 | 11.0 | 21.0 | 0.00 | 0.00 | 0.00 | 79 | 1012.9 |
| 20260902115911 | 85 | 72 | 5.0 | 21.0 | 0.00 | 0.00 | 0.00 | 80 | 1013.1 |
| 20260902115411 | 84 | 111 | 6.0 | 15.0 | 0.00 | 0.00 | 0.00 | 82 | 1012.7 |
| 20260902114910 | 85 | 68 | 6.0 | 15.0 | 0.00 | 0.00 | 0.00 | 82 | 1013.0 |
| 20260902114411 | 85 | 85 | 9.0 | 17.0 | 0.00 | 0.00 | 0.00 | 81 | 1013.0 |
| 20260902113911 | 85 | 79 | 12.0 | 17.0 | 0.00 | 0.00 | 0.00 | 81 | 1012.9 |
| 20260902113410 | 85 | 88 | 9.0 | 14.0 | 0.00 | 0.00 | 0.00 | 82 | 1012.9 |
| 20260902112911 | 84 | 90 | 9.0 | 14.0 | 0.00 | 0.00 | 0.00 | 83 | 1013.0 |
| 20260902112411 | 84 | 65 | 5.0 | 14.0 | 0.00 | 0.00 | 0.00 | 84 | 1013.0 |
| 20260902111911 | 84 | 78 | 7.0 | 14.0 | 0.00 | 0.00 | 0.00 | 84 | 1013.0 |
| 20260902111411 | 84 | 102 | 4.0 | 13.0 | 0.00 | 0.00 | 0.00 | 84 | 1013.0 |
| 20260902110911 | 83 | 80 | 7.0 | 13.0 | 0.00 | 0.00 | 0.00 | 84 | 1012.7 |
| 20260902110411 | 84 | 59 | 4.0 | 11.0 | 0.00 | 0.00 | 0.00 | 84 | 1013.0 |
| 20260902105911 | 84 | 55 | 5.0 | 11.0 | 0.00 | 0.00 | 0.00 | 83 | 1012.7 |
| 20260902105411 | 83 | 86 | 6.0 | 13.0 | 0.00 | 0.00 | 0.00 | 83 | 1013.0 |
| 20260902104911 | 83 | 62 | 6.0 | 13.0 | 0.00 | 0.00 | 0.00 | 83 | 1013.1 |
| 20260902104410 | 83 | 96 | 5.0 | 13.0 | 0.00 | 0.00 | 0.00 | 84 | 1012.6 |
| 20260902103911 | 83 | 144 | 5.0 | 14.0 | 0.00 | 0.00 | 0.00 | 85 | 1012.4 |
| 20260902103412 | 83 | 94 | 4.0 | 14.0 | 0.00 | 0.00 | 0.00 | 86 | 1012.4 |
| 20260902102911 | 83 | 55 | 3.0 | 11.0 | 0.00 | 0.00 | 0.00 | 86 | 1012.6 |
| 20260902102411 | 83 | 186 | 2.0 | 11.0 | 0.00 | 0.00 | 0.00 | 86 | 1012.6 |
| 20260902101910 | 83 | 117 | 3.0 | 11.0 | 0.00 | 0.00 | 0.00 | 86 | 1012.7 |
| 20260902101411 | 83 | 96 | 3.0 | 11.0 | 0.00 | 0.00 | 0.00 | 85 | 1012.6 |
| 20260902100910 | 83 | 78 | 5.0 | 11.0 | 0.00 | 0.00 | 0.00 | 84 | 1012.5 |
| 20260902100411 | 83 | 84 | 4.0 | 14.0 | 0.00 | 0.00 | 0.00 | 83 | 1012.7 |
| 20260902095911 | 83 | 172 | 3.0 | 14.0 | 0.00 | 0.00 | 0.00 | 82 | 1012.5 |
| 20260902095412 | 83 | 77 | 7.0 | 14.0 | 0.00 | 0.00 | 0.00 | 81 | 1012.7 |
| 20260902094911 | 82 | 97 | 2.0 | 17.0 | 0.00 | 0.00 | 0.00 | 80 | 1012.6 |
| 20260902094411 | 82 | 77 | 7.0 | 17.0 | 0.00 | 0.00 | 0.00 | 80 | 1012.6 |
| 20260902093911 | 82 | 68 | 8.0 | 14.0 | 0.00 | 0.00 | 0.00 | 80 | 1012.4 |
| 20260902093410 | 82 | 100 | 10.0 | 14.0 | 0.00 | 0.00 | 0.00 | 81 | 1012.7 |
| 20260902092911 | 82 | 88 | 9.0 | 18.0 | 0.00 | 0.00 | 0.00 | 83 | 1012.5 |
| 20260902092412 | 83 | 85 | 6.0 | 18.0 | 0.00 | 0.00 | 0.00 | 84 | 1012.4 |
| 20260902091911 | 83 | 76 | 7.0 | 17.0 | 0.00 | 0.00 | 0.00 | 85 | 1012.4 |
| 20260902091411 | 83 | 93 | 4.0 | 16.0 | 0.00 | 0.00 | 0.00 | 84 | 1012.3 |
| 20260902090911 | 83 | 124 | 4.0 | 17.0 | 0.00 | 0.00 | 0.00 | 84 | 1012.3 |
| 20260902090411 | 83 | 58 | 11.0 | 17.0 | 0.00 | 0.00 | 0.00 | 84 | 1012.2 |
| 20260902085911 | 83 | 76 | 3.0 | 11.0 | 0.00 | 0.00 | 0.00 | 85 | 1012.0 |
| 20260902085359 | 83 | 93 | 8.0 | 11.0 | 0.00 | 0.00 | 0.00 | 85 | 1012.0 |
| 20260902084859 | 83 | 96 | 5.0 | 11.0 | 0.00 | 0.00 | 0.00 | 85 | 1012.1 |
| 20260902084359 | 83 | 71 | 3.0 | 9.0 | 0.00 | 0.00 | 0.00 | 85 | 1012.3 |
| 20260902083847 | 83 | 117 | 4.0 | 13.0 | 0.00 | 0.00 | 0.00 | 85 | 1012.2 |
| 20260902083347 | 83 | 107 | 7.0 | 13.0 | 0.00 | 0.00 | 0.00 | 85 | 1012.1 |
| 20260902082847 | 83 | 82 | 6.0 | 10.0 | 0.00 | 0.00 | 0.00 | 85 | 1012.3 |
| 20260902082335 | 83 | 196 | 3.0 | 13.0 | 0.00 | 0.00 | 0.00 | 84 | 1012.2 |
| 20260902081838 | 83 | 93 | 4.0 | 13.0 | 0.00 | 0.00 | 0.00 | 84 | 1012.1 |
| 20260902081335 | 83 | 76 | 5.0 | 13.0 | 0.00 | 0.00 | 0.00 | 84 | 1012.1 |
| 20260902080823 | 83 | 49 | 6.0 | 13.0 | 0.00 | 0.00 | 0.00 | 84 | 1012.0 |
| 20260902080323 | 83 | 116 | 5.0 | 14.0 | 0.00 | 0.00 | 0.00 | 84 | 1011.9 |
| 20260902075823 | 83 | 81 | 4.0 | 16.0 | 0.00 | 0.00 | 0.00 | 83 | 1012.0 |
| 20260902075323 | 83 | 108 | 3.0 | 16.0 | 0.00 | 0.00 | 0.00 | 83 | 1012.1 |
| 20260902074823 | 83 | 90 | 5.0 | 15.0 | 0.00 | 0.00 | 0.00 | 83 | 1012.1 |
| 20260902074323 | 83 | 28 | 6.0 | 15.0 | 0.00 | 0.00 | 0.00 | 83 | 1011.9 |
| 20260902073823 | 83 | 49 | 4.0 | 16.0 | 0.00 | 0.00 | 0.00 | 83 | 1012.0 |
| 20260902073323 | 83 | 102 | 5.0 | 16.0 | 0.00 | 0.00 | 0.00 | 83 | 1011.8 |
| 20260902072823 | 83 | 97 | 8.0 | 16.0 | 0.00 | 0.00 | 0.00 | 83 | 1011.9 |
| 20260902072323 | 83 | 87 | 5.0 | 13.0 | 0.00 | 0.00 | 0.00 | 84 | 1012.1 |
| 20260902071823 | 83 | 82 | 6.0 | 13.0 | 0.00 | 0.00 | 0.00 | 83 | 1012.0 |
| 20260902071312 | 83 | 99 | 8.0 | 13.0 | 0.00 | 0.00 | 0.00 | 83 | 1011.9 |
| 20260902070811 | 83 | 101 | 6.0 | 13.0 | 0.00 | 0.00 | 0.00 | 83 | 1012.0 |
| 20260902070312 | 83 | 121 | 4.0 | 16.0 | 0.00 | 0.00 | 0.00 | 83 | 1012.1 |
| 20260902065811 | 83 | 69 | 6.0 | 17.0 | 0.00 | 0.00 | 0.00 | 83 | 1012.1 |
| 20260902065312 | 83 | 87 | 6.0 | 17.0 | 0.00 | 0.00 | 0.00 | 83 | 1012.0 |
| 20260902064811 | 83 | 70 | 6.0 | 14.0 | 0.00 | 0.00 | 0.00 | 84 | 1012.1 |
| 20260902064312 | 83 | 102 | 6.0 | 10.0 | 0.00 | 0.00 | 0.00 | 84 | 1012.2 |
| 20260902063811 | 83 | 70 | 6.0 | 14.0 | 0.00 | 0.00 | 0.00 | 84 | 1012.3 |
| 20260902063312 | 83 | 73 | 6.0 | 14.0 | 0.00 | 0.00 | 0.00 | 84 | 1012.5 |
| 20260902062811 | 83 | 82 | 8.0 | 16.0 | 0.00 | 0.00 | 0.00 | 84 | 1012.2 |
| 20260902062312 | 83 | 136 | 3.0 | 16.0 | 0.00 | 0.00 | 0.00 | 84 | 1012.5 |
| 20260902061810 | 84 | 171 | 8.0 | 15.0 | 0.00 | 0.00 | 0.00 | 84 | 1012.5 |
| 20260902061312 | 83 | 69 | 10.0 | 15.0 | 0.00 | 0.00 | 0.00 | 84 | 1012.4 |
| 20260902060811 | 83 | 107 | 6.0 | 13.0 | 0.00 | 0.00 | 0.00 | 84 | 1012.3 |
| 20260902060312 | 84 | 146 | 1.0 | 14.0 | 0.00 | 0.00 | 0.00 | 84 | 1012.4 |
| 20260902055811 | 84 | 71 | 6.0 | 14.0 | 0.00 | 0.00 | 0.00 | 84 | 1012.5 |
| 20260902055312 | 83 | 70 | 4.0 | 9.0 | 0.00 | 0.00 | 0.00 | 84 | 1012.6 |
| 20260902054810 | 83 | 94 | 3.0 | 10.0 | 0.00 | 0.00 | 0.00 | 84 | 1012.5 |
| 20260902054312 | 83 | 74 | 7.0 | 14.0 | 0.00 | 0.00 | 0.00 | 84 | 1012.3 |
| 20260902053812 | 83 | 64 | 3.0 | 14.0 | 0.00 | 0.00 | 0.00 | 83 | 1012.5 |
| 20260902053313 | 83 | 49 | 2.0 | 14.0 | 0.00 | 0.00 | 0.00 | 83 | 1012.6 |
| 20260902052811 | 83 | 82 | 6.0 | 15.0 | 0.00 | 0.00 | 0.00 | 83 | 1012.6 |
| 20260902052312 | 84 | 95 | 5.0 | 15.0 | 0.00 | 0.00 | 0.00 | 83 | 1012.8 |
| 20260902051811 | 84 | 11 | 4.0 | 18.0 | 0.00 | 0.00 | 0.00 | 83 | 1012.9 |
| 20260902051312 | 83 | 38 | 9.0 | 18.0 | 0.00 | 0.00 | 0.00 | 83 | 1012.3 |
| 20260902050811 | 83 | 100 | 12.0 | 17.0 | 0.00 | 0.00 | 0.00 | 83 | 1012.5 |
| 20260902050313 | 83 | 94 | 6.0 | 17.0 | 0.00 | 0.00 | 0.00 | 83 | 1012.9 |
| 20260902045811 | 84 | 53 | 5.0 | 15.0 | 0.00 | 0.00 | 0.00 | 83 | 1012.7 |
| 20260902045312 | 83 | 149 | 6.0 | 15.0 | 0.00 | 0.00 | 0.00 | 83 | 1012.8 |
| 20260902044810 | 84 | 76 | 4.0 | 21.0 | 0.00 | 0.00 | 0.00 | 84 | 1013.0 |
| 20260902044312 | 84 | 126 | 6.0 | 21.0 | 0.00 | 0.00 | 0.00 | 83 | 1013.3 |
| 20260902043811 | 84 | 136 | 5.0 | 14.0 | 0.00 | 0.00 | 0.00 | 83 | 1013.2 |
| 20260902043312 | 84 | 79 | 9.0 | 15.0 | 0.00 | 0.00 | 0.00 | 83 | 1013.3 |
| 20260902042810 | 84 | 96 | 7.0 | 16.0 | 0.00 | 0.00 | 0.00 | 83 | 1013.2 |
| 20260902042312 | 84 | 45 | 6.0 | 18.0 | 0.00 | 0.00 | 0.00 | 82 | 1013.4 |
| 20260902041810 | 84 | 107 | 6.0 | 18.0 | 0.00 | 0.00 | 0.00 | 83 | 1013.3 |
| 20260902041313 | 84 | 74 | 8.0 | 14.0 | 0.00 | 0.00 | 0.00 | 83 | 1013.3 |
| 20260902040811 | 84 | 51 | 6.0 | 14.0 | 0.00 | 0.00 | 0.00 | 83 | 1013.4 |
| 20260902040313 | 84 | 83 | 6.0 | 16.0 | 0.00 | 0.00 | 0.00 | 83 | 1013.2 |
| 20260902035811 | 84 | 119 | 8.0 | 16.0 | 0.00 | 0.00 | 0.00 | 82 | 1013.3 |
| 20260902035313 | 84 | 103 | 8.0 | 16.0 | 0.00 | 0.00 | 0.00 | 82 | 1013.3 |
| 20260902034811 | 84 | 52 | 8.0 | 16.0 | 0.00 | 0.00 | 0.00 | 82 | 1013.5 |
| 20260902034313 | 84 | 95 | 9.0 | 16.0 | 0.00 | 0.00 | 0.00 | 82 | 1013.1 |
| 20260902033759 | 84 | 71 | 6.0 | 17.0 | 0.00 | 0.00 | 0.00 | 83 | 1013.3 |
| 20260902033259 | 84 | 55 | 6.0 | 17.0 | 0.00 | 0.00 | 0.00 | 83 | 1013.2 |
| 20260902032758 | 84 | 122 | 9.0 | 17.0 | 0.00 | 0.00 | 0.00 | 83 | 1013.2 |
| 20260902032247 | 84 | 74 | 4.0 | 17.0 | 0.00 | 0.00 | 0.00 | 85 | 1013.0 |
| 20260902031747 | 84 | 123 | 9.0 | 14.0 | 0.00 | 0.00 | 0.00 | 85 | 1013.2 |
| 20260902031247 | 84 | 87 | 7.0 | 13.0 | 0.00 | 0.00 | 0.00 | 85 | 1013.2 |
| 20260902030734 | 84 | 20 | 6.0 | 10.0 | 0.00 | 0.00 | 0.00 | 85 | 1013.3 |
| 20260902030235 | 84 | 80 | 3.0 | 14.0 | 0.00 | 0.00 | 0.00 | 85 | 1013.3 |
| 20260902025735 | 84 | 70 | 5.0 | 16.0 | 0.00 | 0.00 | 0.00 | 85 | 1013.3 |
| 20260902025223 | 84 | 148 | 6.0 | 16.0 | 0.00 | 0.00 | 0.00 | 85 | 1013.2 |
| 20260902024723 | 84 | 86 | 7.0 | 13.0 | 0.00 | 0.00 | 0.00 | 84 | 1013.5 |
| 20260902024222 | 84 | 8 | 4.0 | 15.0 | 0.00 | 0.00 | 0.00 | 83 | 1013.3 |
| 20260902023723 | 84 | 68 | 7.0 | 15.0 | 0.00 | 0.00 | 0.00 | 83 | 1013.1 |
| 20260902023223 | 84 | 90 | 7.0 | 18.0 | 0.00 | 0.00 | 0.00 | 83 | 1013.2 |
| 20260902022721 | 84 | 50 | 9.0 | 18.0 | 0.00 | 0.00 | 0.00 | 83 | 1013.3 |
| 20260902022222 | 84 | 78 | 9.0 | 14.0 | 0.00 | 0.00 | 0.00 | 82 | 1013.5 |
| 20260902021722 | 84 | 89 | 8.0 | 18.0 | 0.00 | 0.00 | 0.00 | 83 | 1013.3 |
| 20260902021222 | 84 | 93 | 6.0 | 18.0 | 0.00 | 0.00 | 0.00 | 84 | 1013.4 |
| 20260902020722 | 84 | 91 | 6.0 | 13.0 | 0.00 | 0.00 | 0.00 | 85 | 1013.0 |
| 20260902020224 | 84 | 64 | 4.0 | 13.0 | 0.00 | 0.00 | 0.00 | 85 | 1013.0 |
| 20260902015722 | 84 | 70 | 4.0 | 16.0 | 0.00 | 0.00 | 0.00 | 85 | 1012.9 |
| 20260902015224 | 84 | 80 | 8.0 | 16.0 | 0.00 | 0.00 | 0.00 | 85 | 1013.1 |
| 20260902014721 | 84 | 56 | 4.0 | 16.0 | 0.00 | 0.00 | 0.00 | 84 | 1013.0 |
| 20260902014222 | 84 | 126 | 10.0 | 15.0 | 0.00 | 0.00 | 0.00 | 84 | 1013.2 |
| 20260902013722 | 84 | 103 | 7.0 | 17.0 | 0.00 | 0.00 | 0.00 | 84 | 1013.2 |
| 20260902013222 | 84 | 89 | 7.0 | 16.0 | 0.00 | 0.00 | 0.00 | 84 | 1012.8 |
| 20260902012722 | 84 | 65 | 6.0 | 16.0 | 0.00 | 0.00 | 0.00 | 84 | 1012.9 |
| 20260902012222 | 84 | 112 | 4.0 | 16.0 | 0.00 | 0.00 | 0.00 | 83 | 1012.7 |
| 20260902011722 | 84 | 76 | 6.0 | 16.0 | 0.00 | 0.00 | 0.00 | 83 | 1012.5 |
| 20260902011222 | 84 | 135 | 9.0 | 16.0 | 0.00 | 0.00 | 0.00 | 84 | 1012.4 |
| 20260902010722 | 84 | 93 | 9.0 | 15.0 | 0.00 | 0.00 | 0.00 | 84 | 1012.4 |
| 20260902010222 | 84 | 55 | 5.0 | 15.0 | 0.00 | 0.00 | 0.00 | 85 | 1012.4 |
| 20260902005722 | 84 | 37 | 7.0 | 14.0 | 0.00 | 0.00 | 0.00 | 84 | 1012.5 |
| 20260902005222 | 84 | 91 | 6.0 | 16.0 | 0.00 | 0.00 | 0.00 | 84 | 1012.6 |
| 20260902004721 | 84 | 125 | 7.0 | 16.0 | 0.00 | 0.00 | 0.00 | 84 | 1012.2 |
| 20260902004222 | 84 | 94 | 8.0 | 16.0 | 0.00 | 0.00 | 0.00 | 84 | 1012.5 |
| 20260902003722 | 85 | 76 | 6.0 | 16.0 | 0.00 | 0.00 | 0.00 | 84 | 1012.4 |
| 20260902003222 | 84 | 102 | 5.0 | 15.0 | 0.00 | 0.00 | 0.00 | 83 | 1012.3 |
| 20260902002722 | 84 | 95 | 9.0 | 14.0 | 0.00 | 0.00 | 0.00 | 84 | 1012.2 |
| 20260902002222 | 84 | 129 | 6.0 | 14.0 | 0.00 | 0.00 | 0.00 | 84 | 1012.1 |
| 20260902001722 | 84 | 24 | 3.0 | 14.0 | 0.00 | 0.00 | 0.00 | 84 | 1012.2 |
| 20260902001221 | 84 | 28 | 5.0 | 14.0 | 0.00 | 0.00 | 0.00 | 84 | 1011.9 |
| 20260902000722 | 85 | 77 | 3.0 | 11.0 | 0.00 | 0.00 | 0.00 | 84 | 1011.9 |
| 20260902000223 | 85 | 96 | 4.0 | 11.0 | 0.00 | 0.00 | 0.00 | 84 | 1011.6 |
| 20260901235722 | 85 | 83 | 6.0 | 14.0 | 0.00 | 0.00 | 0.00 | 83 | 1011.9 |
| 20260901235222 | 85 | 100 | 9.0 | 16.0 | 0.00 | 0.00 | 0.00 | 83 | 1011.5 |
| 20260901234722 | 85 | 94 | 2.0 | 16.0 | 0.00 | 0.00 | 0.00 | 83 | 1011.4 |
| 20260901234221 | 85 | 113 | 6.0 | 18.0 | 0.00 | 0.00 | 0.00 | 83 | 1011.4 |
| 20260901233722 | 85 | 78 | 7.0 | 19.0 | 0.00 | 0.00 | 0.00 | 83 | 1011.4 |
| 20260901233222 | 85 | 48 | 10.0 | 19.0 | 0.00 | 0.00 | 0.00 | 84 | 1011.3 |
| 20260901232722 | 85 | 96 | 9.0 | 19.0 | 0.00 | 0.00 | 0.00 | 84 | 1011.2 |
| 20260901232222 | 85 | 63 | 10.0 | 19.0 | 0.00 | 0.00 | 0.00 | 83 | 1011.1 |
| 20260901231722 | 85 | 64 | 5.0 | 17.0 | 0.00 | 0.00 | 0.00 | 83 | 1011.0 |
| 20260901231222 | 85 | 15 | 7.0 | 17.0 | 0.00 | 0.00 | 0.00 | 83 | 1011.0 |
| 20260901230723 | 85 | 102 | 6.0 | 22.0 | 0.00 | 0.00 | 0.00 | 83 | 1011.0 |
| 20260901230221 | 85 | 76 | 7.0 | 22.0 | 0.00 | 0.00 | 0.00 | 83 | 1010.8 |
| 20260901225722 | 85 | 153 | 11.0 | 16.0 | 0.00 | 0.00 | 0.00 | 83 | 1010.8 |
| 20260901225222 | 85 | 54 | 11.0 | 16.0 | 0.00 | 0.00 | 0.00 | 82 | 1010.8 |
| 20260901224721 | 85 | 92 | 6.0 | 16.0 | 0.00 | 0.00 | 0.00 | 83 | 1010.9 |
| 20260901224222 | 85 | 42 | 6.0 | 17.0 | 0.00 | 0.00 | 0.00 | 83 | 1010.8 |
| 20260901223722 | 85 | 76 | 13.0 | 17.0 | 0.00 | 0.00 | 0.00 | 83 | 1010.6 |
| 20260901223222 | 85 | 42 | 8.0 | 16.0 | 0.00 | 0.00 | 0.00 | 82 | 1010.6 |
| 20260901222721 | 85 | 66 | 8.0 | 19.0 | 0.00 | 0.00 | 0.00 | 83 | 1010.7 |
| 20260901222222 | 85 | 99 | 11.0 | 21.0 | 0.00 | 0.00 | 0.00 | 82 | 1010.6 |
| 20260901221722 | 86 | 140 | 8.0 | 21.0 | 0.00 | 0.00 | 0.00 | 82 | 1010.6 |
| 20260901221222 | 86 | 36 | 7.0 | 21.0 | 0.00 | 0.00 | 0.00 | 81 | 1010.3 |
| 20260901220722 | 86 | 97 | 6.0 | 25.0 | 0.00 | 0.00 | 0.00 | 81 | 1010.3 |
| 20260901220222 | 86 | 73 | 10.0 | 25.0 | 0.00 | 0.00 | 0.00 | 81 | 1010.2 |
| 20260901215722 | 86 | 81 | 11.0 | 21.0 | 0.00 | 0.00 | 0.00 | 80 | 1010.1 |
| 20260901215222 | 86 | 76 | 9.0 | 22.0 | 0.00 | 0.00 | 0.00 | 80 | 1010.1 |
| 20260901214722 | 86 | 61 | 8.0 | 22.0 | 0.00 | 0.00 | 0.00 | 79 | 1010.0 |
| 20260901214222 | 87 | 29 | 7.0 | 23.0 | 0.00 | 0.00 | 0.00 | 78 | 1009.9 |
| 20260901213710 | 87 | 100 | 5.0 | 23.0 | 0.00 | 0.00 | 0.00 | 78 | 1010.0 |
| 20260901213210 | 87 | 61 | 10.0 | 18.0 | 0.00 | 0.00 | 0.00 | 77 | 1010.0 |
| 20260901212710 | 87 | 68 | 11.0 | 21.0 | 0.00 | 0.00 | 0.00 | 77 | 1009.9 |
| 20260901212210 | 87 | 89 | 10.0 | 24.0 | 0.00 | 0.00 | 0.00 | 76 | 1009.9 |
| 20260901211710 | 87 | 88 | 8.0 | 24.0 | 0.00 | 0.00 | 0.00 | 76 | 1009.6 |
| 20260901211209 | 87 | 98 | 8.0 | 23.0 | 0.00 | 0.00 | 0.00 | 76 | 1009.8 |
| 20260901210710 | 88 | 85 | 10.0 | 16.0 | 0.00 | 0.00 | 0.00 | 76 | 1009.8 |
| 20260901210210 | 88 | 47 | 7.0 | 18.0 | 0.00 | 0.00 | 0.00 | 76 | 1010.1 |
| 20260901205709 | 87 | 33 | 10.0 | 18.0 | 0.00 | 0.00 | 0.00 | 77 | 1009.7 |
| 20260901205210 | 88 | 45 | 9.0 | 18.0 | 0.00 | 0.00 | 0.00 | 76 | 1009.9 |
| 20260901204710 | 87 | 83 | 11.0 | 21.0 | 0.00 | 0.00 | 0.00 | 77 | 1010.0 |
| 20260901204209 | 87 | 90 | 12.0 | 25.0 | 0.00 | 0.00 | 0.00 | 77 | 1009.9 |
| 20260901203710 | 87 | 57 | 10.0 | 25.0 | 0.00 | 0.00 | 0.00 | 77 | 1010.1 |
| 20260901203210 | 88 | 44 | 18.0 | 24.0 | 0.00 | 0.00 | 0.00 | 77 | 1010.1 |
| 20260901202710 | 87 | 79 | 16.0 | 24.0 | 0.00 | 0.00 | 0.00 | 77 | 1009.7 |
| 20260901202210 | 87 | 29 | 10.0 | 24.0 | 0.00 | 0.00 | 0.00 | 77 | 1010.1 |
| 20260901201710 | 88 | 54 | 11.0 | 22.0 | 0.00 | 0.00 | 0.00 | 76 | 1010.0 |